FW9696 Weather Reports


Display with metric or nautical units.
time (UTC)temp
F
wind
direction
speed
MPH
gust
MPH
rain 1hr
in
rain 24hr
in
rain mn
in
humidity
%
barometer
mb
20260507072545 41 0 0.0 2.0 0.00 0.57 0.00 97 1007.8
20260507072048 41 0 0.0 2.0 0.00 0.57 0.00 97 1007.7
20260507071553 41 0 0.0 2.0 0.00 0.57 0.00 97 1007.7
20260507071045 41 0 0.0 2.0 0.00 0.57 0.00 97 1007.4
20260507070545 41 307 0.0 1.0 0.00 0.57 0.00 97 1007.4
20260507070055 42 0 0.0 1.0 0.00 0.57 0.00 97 1007.4
20260507065545 42 0 0.0 3.0 0.00 0.57 0.00 97 1007.4
20260507065045 42 0 0.0 3.0 0.00 0.57 0.00 97 1007.4
20260507064551 42 0 1.0 3.0 0.00 0.57 0.00 97 1007.5
20260507064048 42 0 0.0 1.0 0.00 0.57 0.00 97 1007.3
20260507063545 42 0 0.0 1.0 0.00 0.57 0.00 97 1007.4
20260507063051 42 0 0.0 1.0 0.00 0.57 0.00 97 1007.6
20260507062545 42 0 0.0 1.0 0.00 0.57 0.00 97 1007.5
20260507062047 42 0 0.0 3.0 0.00 0.57 0.00 97 1007.5
20260507061551 42 299 0.0 3.0 0.00 0.57 0.00 97 1007.6
20260507061047 42 298 0.0 3.0 0.00 0.57 0.00 97 1007.5
20260507060546 42 0 0.0 0.0 0.00 0.57 0.00 97 1007.7
20260507060051 42 0 0.0 1.0 0.00 0.57 0.00 97 1007.8
20260507055547 42 0 0.0 1.0 0.00 0.57 0.00 97 1007.9
20260507055046 42 0 0.0 1.0 0.00 0.57 0.00 97 1008.1
20260507054551 42 0 0.0 3.0 0.00 0.57 0.00 97 1008.1
20260507054045 42 0 0.0 3.0 0.00 0.57 0.00 97 1008.0
20260507053547 42 323 0.0 5.0 0.00 0.57 0.00 97 1008.1
20260507053052 42 53 2.0 6.0 0.00 0.57 0.00 97 1007.8
20260507052545 42 0 2.0 6.0 0.00 0.57 0.00 97 1007.7
20260507052045 42 142 2.0 5.0 0.00 0.57 0.00 97 1008.0
20260507051553 42 0 0.0 1.0 0.00 0.57 0.00 97 1008.1
20260507051048 42 0 0.0 1.0 0.00 0.57 0.00 97 1008.2
20260507050550 42 0 0.0 2.0 0.00 0.57 0.00 96 1008.0
20260507050057 42 0 0.0 3.0 0.00 0.57 0.00 97 1008.1
20260507045549 42 200 0.0 3.0 0.00 0.65 0.00 97 1008.2
20260507045046 42 0 0.0 1.0 0.00 0.65 0.00 97 1008.3
20260507044554 43 0 0.0 2.0 0.00 0.65 0.00 97 1008.2
20260507044047 43 0 0.0 2.0 0.00 0.65 0.00 97 1008.2
20260507043547 43 168 0.0 4.0 0.00 0.65 0.00 97 1007.8
20260507043109 43 0 0.0 5.0 0.00 0.65 0.00 97 1007.8
20260507042546 43 161 1.0 5.0 0.00 0.65 0.00 97 1007.9
20260507042047 43 169 1.0 6.0 0.00 0.65 0.00 97 1008.0
20260507041604 43 177 2.0 7.0 0.00 0.65 0.00 97 1007.9
20260507041050 43 157 2.0 9.0 0.00 0.65 0.00 96 1008.0
20260507040547 43 175 2.0 9.0 0.00 0.65 0.00 97 1008.1
20260507040059 43 137 2.0 5.0 0.00 0.65 0.00 97 1007.9
20260507035547 44 186 0.0 2.0 0.00 0.67 0.65 97 1008.1
20260507035047 44 186 0.0 2.0 0.00 0.67 0.65 97 1007.9
20260507034556 43 0 0.0 1.0 0.00 0.67 0.65 97 1007.9
20260507034047 43 0 0.0 2.0 0.00 0.67 0.65 97 1007.9
20260507033547 43 0 0.0 3.0 0.00 0.67 0.65 97 1007.8
20260507033109 44 186 1.0 4.0 0.00 0.67 0.65 97 1008.0
20260507032547 44 173 0.0 4.0 0.00 0.67 0.65 97 1007.7
20260507032050 44 184 1.0 4.0 0.00 0.67 0.65 97 1007.9
20260507031610 44 0 0.0 3.0 0.00 0.67 0.65 97 1008.0
20260507031049 44 170 0.0 2.0 0.00 0.67 0.65 97 1007.9
20260507030546 44 0 0.0 2.0 0.00 0.67 0.65 97 1008.1
20260507025549 44 170 1.0 2.0 0.00 0.67 0.65 97 1008.2
20260507025050 44 0 0.0 2.0 0.00 0.67 0.65 97 1008.2
20260507024632 44 0 0.0 2.0 0.00 0.67 0.65 97 1008.4
20260507024047 44 0 0.0 1.0 0.00 0.67 0.65 97 1008.4
20260507023552 44 0 0.0 2.0 0.01 0.67 0.65 97 1008.4
20260507023058 44 0 0.0 3.0 0.01 0.67 0.65 97 1008.4
20260507022549 44 0 0.0 3.0 0.01 0.67 0.65 97 1008.6
20260507022047 45 142 0.0 3.0 0.02 0.67 0.65 97 1008.6
20260507021558 45 0 1.0 3.0 0.02 0.67 0.65 96 1008.8
20260507021047 45 0 0.0 4.0 0.02 0.67 0.65 97 1008.7
20260507020547 45 218 1.0 4.0 0.02 0.67 0.65 97 1008.7
20260507020109 45 219 1.0 3.0 0.03 0.67 0.65 97 1008.5
20260507015546 45 217 1.0 3.0 0.03 0.67 0.65 97 1008.4
20260507015047 46 184 0.0 2.0 0.03 0.67 0.65 97 1008.4
20260507014605 46 0 0.0 2.0 0.03 0.67 0.65 97 1008.4
20260507014047 46 0 0.0 4.0 0.02 0.66 0.64 97 1008.5
20260507013549 46 0 0.0 4.0 0.02 0.66 0.64 97 1008.5
20260507013054 46 163 0.0 2.0 0.03 0.66 0.64 97 1008.3
20260507012546 46 0 0.0 4.0 0.03 0.66 0.64 97 1008.4
20260507012046 46 0 0.0 4.0 0.02 0.65 0.63 97 1008.4
20260507011552 46 153 0.0 2.0 0.03 0.65 0.63 97 1008.4
20260507011045 47 0 0.0 2.0 0.04 0.65 0.63 97 1008.3
20260507010546 47 0 0.0 3.0 0.04 0.65 0.63 97 1008.3
20260507010054 47 347 1.0 3.0 0.03 0.64 0.62 97 1008.3
20260507005546 46 131 0.0 2.0 0.03 0.64 0.62 97 1008.2
20260507005043 46 0 0.0 1.0 0.03 0.64 0.62 97 1008.1
20260507004554 46 0 0.0 1.0 0.03 0.64 0.62 97 1008.1
20260507004046 46 0 0.0 1.0 0.03 0.64 0.62 97 1008.0
20260507003547 46 0 0.0 1.0 0.03 0.64 0.62 97 1007.7
20260507003056 47 0 0.0 1.0 0.03 0.63 0.61 96 1007.6
20260507002547 46 0 0.0 1.0 0.03 0.63 0.61 96 1007.6
20260507002045 47 0 0.0 1.0 0.03 0.63 0.61 96 1007.3
20260507001557 47 0 0.0 1.0 0.02 0.62 0.60 96 1007.3
20260507001046 47 0 0.0 1.0 0.01 0.61 0.58 96 1007.6
20260507000547 47 65 0.0 1.0 0.01 0.61 0.58 96 1007.6
20260507000058 47 0 0.0 0.0 0.01 0.61 0.58 96 1007.4
20260506235546 47 0 0.0 0.0 0.02 0.62 0.58 96 1007.3
20260506235048 47 0 0.0 1.0 0.02 0.62 0.58 96 1007.0
20260506234601 47 0 0.0 1.0 0.02 0.62 0.58 96 1006.8
20260506234046 47 0 0.0 2.0 0.02 0.62 0.58 96 1006.8
20260506233549 47 0 0.0 2.0 0.02 0.62 0.58 96 1006.6
20260506233054 47 0 0.0 1.0 0.01 0.61 0.58 96 1006.6
20260506232546 47 88 0.0 3.0 0.01 0.61 0.58 96 1006.5
20260506232048 47 0 0.0 3.0 0.01 0.61 0.58 96 1006.5
20260506231557 47 0 0.0 3.0 0.01 0.61 0.58 96 1006.4
20260506231048 47 0 0.0 2.0 0.01 0.61 0.58 96 1006.2
20260506230546 47 348 0.0 2.0 0.01 0.61 0.58 96 1006.3
20260506230058 47 336 0.0 2.0 0.01 0.61 0.58 96 1006.3
20260506225547 47 0 0.0 2.0 0.00 0.60 0.57 96 1006.2
20260506225046 47 0 0.0 2.0 0.00 0.60 0.57 96 1006.1
20260506224553 47 44 1.0 2.0 0.00 0.60 0.57 96 1006.0
20260506224045 48 90 0.0 2.0 0.00 0.60 0.57 96 1006.0
20260506223544 48 0 0.0 1.0 0.00 0.60 0.57 96 1006.0
20260506223057 48 135 0.0 1.0 0.00 0.60 0.57 96 1005.9
20260506222546 48 0 0.0 1.0 0.00 0.60 0.57 96 1005.9
20260506222046 48 0 0.0 1.0 0.00 0.60 0.57 96 1005.7
20260506221553 48 0 0.0 1.0 0.00 0.60 0.57 96 1005.6
20260506221046 48 0 0.0 1.0 0.00 0.60 0.57 96 1005.6
20260506220547 48 0 0.0 2.0 0.00 0.60 0.57 96 1005.7
20260506220057 48 0 0.0 3.0 0.00 0.60 0.57 96 1005.7
20260506215546 48 0 0.0 3.0 0.00 0.60 0.57 96 1005.6
20260506215048 48 163 0.0 2.0 0.00 0.60 0.57 96 1005.5
20260506214553 48 162 0.0 2.0 0.00 0.60 0.57 96 1005.6
20260506214047 48 350 0.0 2.0 0.00 0.60 0.57 96 1005.5
20260506213546 48 0 0.0 2.0 0.00 0.60 0.57 96 1005.4
20260506213127 48 90 0.0 3.0 0.00 0.60 0.57 96 1005.5
20260506212546 48 0 0.0 3.0 0.00 0.60 0.57 96 1005.5
20260506212046 48 0 0.0 3.0 0.00 0.60 0.57 96 1005.4
20260506211608 48 75 1.0 3.0 0.01 0.60 0.57 96 1005.5
20260506211046 48 0 0.0 3.0 0.01 0.60 0.57 96 1005.4
20260506210545 48 0 1.0 3.0 0.03 0.60 0.57 96 1005.4
20260506205545 49 22 1.0 6.0 0.03 0.74 0.57 96 1005.1
20260506205044 49 352 2.0 6.0 0.04 0.74 0.57 96 1005.2
20260506204556 49 331 0.0 4.0 0.04 0.74 0.57 96 1005.1
20260506204046 49 0 0.0 5.0 0.05 0.74 0.57 96 1005.0
20260506203548 50 355 1.0 5.0 0.05 0.74 0.57 96 1004.9
20260506203054 50 0 1.0 4.0 0.06 0.74 0.57 96 1004.9
20260506202547 50 62 0.0 4.0 0.06 0.74 0.57 96 1004.9
20260506202049 50 81 0.0 3.0 0.07 0.74 0.57 96 1004.9
20260506201601 51 0 0.0 3.0 0.07 0.73 0.56 96 1004.9
20260506201048 51 0 1.0 4.0 0.07 0.73 0.56 96 1004.9
20260506200546 51 0 1.0 4.0 0.05 0.71 0.54 96 1004.9
20260506200059 51 51 2.0 4.0 0.05 0.71 0.54 96 1004.7
20260506195547 52 28 1.0 6.0 0.05 0.71 0.54 96 1004.7
20260506195046 52 77 0.0 6.0 0.05 0.70 0.52 96 1004.6
20260506194602 53 71 2.0 5.0 0.05 0.70 0.52 96 1004.6
20260506194046 54 0 1.0 5.0 0.05 0.69 0.52 96 1004.5
20260506193547 55 42 2.0 5.0 0.05 0.69 0.52 96 1004.5
20260506193049 56 15 2.0 5.0 0.05 0.68 0.51 96 1004.5
20260506192551 57 132 0.0 3.0 0.05 0.68 0.51 96 1004.4
20260506192045 58 0 0.0 2.0 0.04 0.67 0.50 97 1004.4
20260506191551 58 0 0.0 2.0 0.03 0.66 0.49 97 1004.3
20260506191047 59 0 0.0 2.0 0.03 0.66 0.49 97 1004.5
20260506190550 58 0 0.0 2.0 0.03 0.66 0.49 97 1004.5
20260506190054 58 240 0.0 2.0 0.04 0.66 0.49 97 1004.6
20260506185546 58 0 0.0 3.0 0.04 0.66 0.49 97 1004.6
20260506185049 58 0 1.0 3.0 0.04 0.65 0.48 97 1004.6
20260506184604 58 0 0.0 2.0 0.05 0.65 0.48 97 1004.6
20260506184047 58 0 0.0 2.0 0.05 0.64 0.47 97 1004.7
20260506183546 58 0 0.0 2.0 0.06 0.64 0.47 97 1004.5
20260506183100 58 0 0.0 2.0 0.06 0.63 0.46 97 1004.5
20260506182545 58 0 0.0 2.0 0.06 0.63 0.46 97 1004.6
20260506182047 59 0 0.0 1.0 0.07 0.63 0.46 98 1004.6
20260506181549 58 0 0.0 2.0 0.08 0.63 0.46 97 1004.7
20260506181046 57 0 0.0 2.0 0.09 0.63 0.46 97 1004.7
20260506180547 57 0 0.0 2.0 0.10 0.63 0.46 97 1004.9
20260506180054 57 0 0.0 2.0 0.10 0.62 0.45 97 1005.0
20260506175545 57 36 0.0 3.0 0.11 0.62 0.45 97 1004.9
20260506175045 57 0 0.0 3.0 0.10 0.61 0.44 97 1005.1
20260506174552 57 352 0.0 3.0 0.10 0.60 0.43 97 1005.2
20260506174045 57 0 0.0 2.0 0.10 0.58 0.42 97 1005.3
20260506173547 56 0 0.0 2.0 0.09 0.58 0.41 97 1005.3
20260506173053 57 0 1.0 2.0 0.10 0.57 0.40 97 1005.3
20260506172549 56 0 0.0 2.0 0.12 0.57 0.40 97 1005.5
20260506172046 56 0 0.0 3.0 0.12 0.56 0.39 97 1005.5
20260506171553 56 321 0.0 3.0 0.12 0.55 0.38 97 1005.6
20260506171050 56 336 1.0 3.0 0.11 0.54 0.37 97 1005.5
20260506170545 56 0 0.0 2.0 0.11 0.52 0.36 97 1005.6
20260506170107 56 334 0.0 2.0 0.11 0.52 0.35 97 1005.6
20260506165548 56 334 0.0 2.0 0.10 0.51 0.34 97 1005.6
20260506165048 56 0 0.0 1.0 0.11 0.51 0.34 97 1005.5
20260506164551 56 0 0.0 2.0 0.10 0.50 0.33 97 1005.7
20260506164046 56 0 0.0 3.0 0.10 0.49 0.32 97 1005.7
20260506163545 56 334 0.0 3.0 0.10 0.49 0.32 97 1005.8
20260506163102 56 334 0.0 2.0 0.08 0.47 0.30 97 1005.8
20260506162545 56 0 0.0 2.0 0.07 0.45 0.28 97 1005.8
20260506162045 56 0 0.0 2.0 0.06 0.44 0.27 97 1005.8
20260506161551 56 0 0.0 2.0 0.06 0.43 0.26 97 1006.0
20260506161045 56 0 0.0 2.0 0.06 0.43 0.26 97 1006.1
20260506160545 56 0 0.0 2.0 0.06 0.42 0.25 97 1006.2
20260506160053 56 319 0.0 2.0 0.05 0.41 0.24 97 1006.3
20260506155545 56 0 0.0 2.0 0.06 0.41 0.24 97 1006.3
20260506155048 55 0 0.0 1.0 0.06 0.40 0.23 97 1006.4
20260506154559 55 0 0.0 1.0 0.06 0.40 0.23 97 1006.5
20260506154046 55 0 0.0 1.0 0.06 0.39 0.22 97 1006.4
20260506153546 55 0 0.0 2.0 0.06 0.39 0.22 97 1006.7
20260506153058 55 0 0.0 2.0 0.06 0.39 0.22 97 1006.7
20260506152545 55 0 0.0 3.0 0.05 0.38 0.21 97 1006.8
20260506152046 55 0 0.0 3.0 0.06 0.38 0.21 97 1006.8
20260506151609 55 355 0.0 2.0 0.05 0.37 0.20 97 1006.8
20260506151048 55 355 0.0 2.0 0.05 0.37 0.20 97 1006.8
20260506150545 55 0 0.0 1.0 0.04 0.36 0.19 98 1007.0
20260506150100 55 355 0.0 1.0 0.05 0.36 0.19 97 1007.1
20260506145546 55 0 0.0 2.0 0.04 0.34 0.17 97 1007.1
20260506145049 55 355 0.0 2.0 0.04 0.34 0.17 97 1007.2
20260506144605 55 0 0.0 2.0 0.05 0.34 0.17 97 1007.2
20260506144047 54 0 0.0 2.0 0.04 0.33 0.16 97 1007.2
20260506143547 54 355 0.0 2.0 0.04 0.33 0.16 97 1007.2
20260506143109 55 355 0.0 2.0 0.04 0.33 0.16 98 1007.1
20260506142545 55 355 0.0 2.0 0.04 0.33 0.16 98 1007.2
20260506142045 54 0 0.0 2.0 0.04 0.32 0.15 98 1007.2
20260506141600 54 0 0.0 1.0 0.04 0.32 0.15 98 1007.1
20260506141046 55 0 0.0 1.0 0.04 0.32 0.15 98 1007.2
20260506140549 55 0 0.0 1.0 0.03 0.31 0.14 98 1007.1
20260506140056 54 0 0.0 1.0 0.04 0.31 0.14 98 1007.2
20260506135545 54 355 0.0 1.0 0.03 0.30 0.13 98 1007.3
20260506135045 54 0 0.0 1.0 0.03 0.30 0.13 98 1007.2
20260506134553 54 0 0.0 3.0 0.03 0.29 0.12 98 1007.3
20260506134046 54 0 0.0 3.0 0.03 0.29 0.12 98 1007.1
20260506133545 54 328 0.0 3.0 0.03 0.29 0.12 98 1007.2
20260506133052 54 0 0.0 3.0 0.03 0.29 0.12 98 1007.2
20260506132545 54 55 1.0 3.0 0.03 0.29 0.12 98 1007.3
20260506132051 54 62 0.0 1.0 0.02 0.28 0.11 98 1007.4
20260506131555 54 0 0.0 1.0 0.02 0.28 0.11 98 1007.4
20260506131050 54 61 0.0 1.0 0.03 0.28 0.11 98 1007.4
20260506130546 54 0 0.0 1.0 0.03 0.28 0.11 98 1007.6
20260506125550 54 0 0.0 1.0 0.02 0.27 0.10 98 1007.7
20260506125045 54 0 0.0 1.0 0.02 0.27 0.10 98 1007.8
20260506124549 54 0 0.0 1.0 0.01 0.26 0.09 98 1007.7
20260506124045 54 0 0.0 1.0 0.01 0.26 0.09 98 1007.7
20260506123545 54 61 0.0 1.0 0.01 0.26 0.09 98 1007.7
20260506123049 54 0 0.0 1.0 0.01 0.26 0.09 98 1007.7
20260506122546 54 0 0.0 1.0 0.01 0.26 0.09 98 1007.8
20260506122045 54 61 0.0 2.0 0.01 0.26 0.09 98 1007.8
20260506121552 53 0 0.0 2.0 0.01 0.26 0.09 98 1007.8
20260506121045 53 0 0.0 2.0 0.00 0.25 0.08 98 1007.9
20260506120545 54 0 0.0 2.0 0.00 0.25 0.08 98 1007.8
20260506120052 54 0 0.0 2.0 0.00 0.25 0.08 98 1007.8
20260506115545 53 0 0.0 1.0 0.00 0.25 0.08 98 1007.9
20260506115045 53 0 0.0 1.0 0.00 0.25 0.08 98 1008.2
20260506114551 53 0 0.0 0.0 0.00 0.25 0.08 98 1008.0
20260506114045 53 0 0.0 0.0 0.00 0.25 0.08 98 1008.0
20260506113546 53 0 0.0 0.0 0.00 0.25 0.08 98 1008.0
20260506113048 53 0 0.0 1.0 0.00 0.25 0.08 98 1008.0
20260506112545 53 0 0.0 1.0 0.00 0.25 0.08 98 1007.9
20260506112045 53 313 0.0 1.0 0.00 0.25 0.08 98 1007.9
20260506111550 53 0 0.0 2.0 0.00 0.25 0.08 98 1007.8
20260506111045 53 0 0.0 2.0 0.00 0.25 0.08 98 1007.8
20260506110548 53 0 0.0 2.0 0.00 0.25 0.08 98 1007.8
20260506110049 53 0 0.0 1.0 0.00 0.25 0.08 98 1007.7
20260506105545 53 313 0.0 1.0 0.00 0.25 0.08 98 1007.8
20260506105046 53 0 0.0 1.0 0.00 0.25 0.08 98 1007.9
20260506104550 53 0 0.0 1.0 0.00 0.25 0.08 98 1007.8
20260506104045 52 0 0.0 1.0 0.00 0.25 0.08 98 1008.0
20260506103547 52 0 0.0 1.0 0.00 0.25 0.08 98 1007.9
20260506103054 52 0 0.0 1.0 0.00 0.25 0.08 98 1007.8
20260506102546 52 0 0.0 1.0 0.00 0.25 0.08 98 1007.9
20260506102046 52 0 0.0 2.0 0.00 0.25 0.08 98 1008.0
20260506101549 52 0 0.0 2.0 0.00 0.25 0.08 97 1008.0
20260506101045 52 0 0.0 2.0 0.00 0.25 0.08 97 1008.0
20260506100545 52 0 0.0 2.0 0.00 0.25 0.08 98 1007.8
20260506100050 52 313 0.0 2.0 0.00 0.25 0.08 98 1007.8
20260506095546 52 0 0.0 0.0 0.00 0.25 0.08 98 1007.8
20260506095046 52 0 0.0 0.0 0.00 0.25 0.08 98 1007.9
20260506094548 52 0 0.0 0.0 0.00 0.25 0.08 97 1008.0
20260506094046 52 0 0.0 1.0 0.00 0.25 0.08 98 1008.1
20260506093545 52 0 0.0 2.0 0.00 0.25 0.08 97 1008.2
20260506093051 52 0 0.0 2.0 0.00 0.25 0.08 98 1008.0
20260506092546 52 313 0.0 2.0 0.00 0.25 0.08 97 1008.0
20260506092045 52 313 0.0 2.0 0.00 0.25 0.08 97 1008.0
20260506091550 52 0 0.0 0.0 0.00 0.25 0.08 97 1008.1
20260506091044 52 0 0.0 0.0 0.00 0.25 0.08 97 1008.1
20260506090545 52 0 0.0 0.0 0.00 0.25 0.08 97 1008.1
20260506090058 52 0 0.0 0.0 0.00 0.25 0.08 97 1008.1
20260506085545 52 0 0.0 0.0 0.00 0.25 0.08 97 1008.4
20260506085045 53 0 0.0 1.0 0.00 0.25 0.08 97 1008.2
20260506084601 53 0 0.0 1.0 0.00 0.25 0.08 97 1008.4
20260506084045 53 0 0.0 1.0 0.00 0.25 0.08 97 1008.2
20260506083546 53 313 0.0 2.0 0.00 0.25 0.08 97 1008.5
20260506083047 53 0 0.0 2.0 0.00 0.25 0.08 97 1008.3
20260506082545 53 0 0.0 2.0 0.00 0.25 0.08 97 1008.4
20260506082045 53 0 0.0 2.0 0.00 0.25 0.08 97 1008.4
20260506081551 53 0 0.0 2.0 0.00 0.25 0.08 97 1008.4
20260506081045 53 0 0.0 1.0 0.00 0.25 0.08 97 1008.3
20260506080547 53 0 0.0 2.0 0.00 0.25 0.08 97 1008.3
20260506073058 54 0 0.0 2.0 0.00 0.25 0.08 97 1008.2